Location: Boissi�res
(45.2500°N, 2.3667°E)
Time: 02:29:00
(UTC+00:00)

Resurs 01 Rocket - Pass Details

Date: 03 March 2021
Orbit: 635 x 643 km, 98.0° (Epoch: 20 April)

Event Time Altitude Azimuth Distance (km) Brightness Sun altitude
Exits shadow 19:12:39 16° 44° (NE) 1,678 3.4 -17.0°
Drops below altitude 10° 19:14:24 10° 22° (NNE) 2,033 4.1 -17.3°
Sets 19:17:15 0° 3° (N) 2,948 5.1 -17.8°
